Starlink 32294

operational
NORAD ID: 61675 Int'l Des: 2024-193 Owner: SPXS Country: US Constellation: starlink
LEOCIRCULAR

Über Starlink 32294

Beschreibung wird geladen...

Live-Position

3D-Globus wird geladen...

Nächste Überflüge

Höhenverlauf

Altitude vs Time

uPlot chart will show altitude changes over time

Zweizeiliger Elementsatz

1 61675U 24193Q 25305.30617010 .00003073 00000-0 11592-3 0 9991
2 61675 53.1609 327.1144 0001310 115.3757 244.7379 15.30173826 56875
Epoch: 1. Nov. 2025 • Age: 17 hours

Aktueller Status

Höhe 487.5 km
Geschwindigkeit 7.62 km/s
Subsatellitenpunkt -35.50°S, 115.67°W
Startdatum 26. Okt. 2024
Alter 1 years
Typ internet

Technische Details

Klassifizierung Payload
Masse 730.00 kg
Trockenmasse 700.00 kg
Gesamtmasse 730.00 kg
Länge 0.30 m
Durchmesser 4.10 m
Spannweite 29.00 m
Form Box + pan
Hersteller SPXS
Bus-Typ Starlink V2M
Phasenstatus In Orbit
Besitzer/Staat SPXS/US

Große Konstellationen

Loading constellations...